SCP
0 0 0 0 0 0 0 0 -0 -0 -0 -0 -0 -0 -0 -0 -0 -0 0 0 0 0 0 -0 0 -0 -0 0 0 0 -0 0 0 0 0 -0 -0 -0 -0 -0 -0 -0 -0 -0 -0 -0 -0 -0 -0
0 0 0 0 0 0 0 0 0 0 -0 -0 -0 0 0 -0 -0 0 0 -0 0 -0 0 -0 0 -0 -0 0 0 0 0 0 -0 0 0 -0 -0 -0 -0 -0 -0 -0 -0 -0 -0 -0 -0 -0 0
0 0 0 0 0 0 0 0 0 0 0 0 0 0 0 -0 0 0 0 0 0 0 0 0 0 0 -0 -0 0 0 0 0 0 -0 0 -0 -0 -0 -0 -0 -0 -0 -0 -0 -0 0 0 0 0
0 0 0 0 0 0 0 0 0 0 0 0 0 -0 0 0 0 0 0 0 0 0 0 0 0 0 0 0 0 -0 0 0 0 0 0 -0 -0 -0 -0 -0 -0 -0 -0 -0 -0 -0 -0 0 0
0 0 0 0 0 0 0 0 0 0 0 0 0 0 0 0 -0 -0 0 0 -0 -0 0 0 -0 0 0 0 -0 -0 -0 -0 -0 -0 -0 -0 -0 -0 -0 -0 -0 -0 -0 -0 -0 -0 -0 0 0
0 0 0 0 0 0 0 0 0 0 0 0 0 0 0 0 -0 0 0 0 -0 -0 -0 0 -0 -0 -0 -0 -0 -0 -0 -0 -0 -0 -0 -0 -0 -0 -0 -0 -0 -0 -0 -0 -0 0 0 0 0
0 0 0 0 0 0 0 0 0 0 0 0 0 0 0 0 0 0 -0 -0 -0 -0 -0 -0 -0 -0 -0 -0 -0 -0 -0 -0 -0 -0 -0 -0 -0 -0 -0 -0 -0 -0 -0 -0 0 0 0 0 0
0 0 0 0 0 0 0 0 0 0 0 0 0 0 0 0 0 0 0 -0 -0 -0 -0 -0 -0 -0 -0 -0 -0 -0 -0 -0 -0 -0 -0 -0 -0 -0 -0 -0 -0 -0 -0 -0 0 0 0 0 0
0 0 0 0 0 0 0 0 0 0 0 0 0 0 0 -0 0 0 0 0 -0 -0 -0 -0 -0 -0 -0 -0 -0 -0 -0 -0 -0 -0 -0 -0 -0 -0 -0 -0 -0 -0 -0 0 0 0 0 0 0
0 0 0 0 0 0 0 0 0 0 0 0 0 0 0 0 0 0 0 0 0 0 0 0 0 -0 -0 -0 -0 -0 -0 0 -0 -0 0 0 -0 -0 -0 -0 -0 -0 -0 0 0 0 0 0 0
0 0 0 0 0 0 0 0 0 0 0 0 0 0 0 0 0 0 0 0 0 0 0 0 0 0 0 -0 0 0 -0 0 0 -0 0 -0 -0 -0 -0 -0 -0 0 0 0 0 0 0 0 0
0 0 0 0 0 0 0 0 0 0 0 0 0 0 0 0 0 0 0 0 0 0 0 0 0 0 0 0 0 0 0 0 0 0 0 0 0 -0 -0 0 0 0 0 0 0 0 0 0 0
0 0 0 0 0 0 0 0 0 0 0 0 0 0 0 0 0 0 0 0 0 0 0 0 0 0 0 0 0 0 0 0 0 0 0 0 0 0 0 0 0 0 0 0 0 0 0 0 0
0 0 0 0 0 0 0 0 0 0 0 0 0 0 0 0 0 0 0 0 0 0 0 0 0 0 0 0 0 0 0 0 0 0 0 0 0 0 0 0 0 0 0 0 0 0 0 0 0
0 0 0 0 0 0 0 0 0 0 0 0 0 0 0 0 0 0 0 0 0 0 0 0 0 0 0 0 0 0 0 0 0 0 0 0 0 0 0 0 0 0 0 0 0 0 0 0 0
0 0 0 0 0 0 0 0 0 0 0 0 0 0 0 0 0 0 0 0 0 0 0 0 0 0 0 0 0 0 0 0 0 0 0 0 0 0 0 0 0 0 0 0 0 0 0 0 0
0 0 0 0 0 0 0 0 0 0 0 0 0 0 0 0 0 0 0 0 0 0 0 0 0 0 0 0 0 0 0 0 0 0 0 0 0 0 0 0 0 0 0 0 0 0 0 0 0
0 0 0 0 0 0 0 0 0 0 0 0 0 0 0 0 0 0 0 0 0 0 0 0 0 0 0 0 0 0 0 0 0 0 0 0 0 0 0 0 0 0 0 0 0 0 0 0 0
0 0 0 0 0 0 0 0 0 0 0 0 0 0 0 0 0 0 0 0 0 0 0 0 0 0 0 0 0 0 0 0 0 0 0 0 0 0 0 0 0 0 0 0 0 0 0 0 0
0 0 0 0 0 0 0 0 0 0 0 0 0 0 0 0 0 0 0 0 0 0 0 0 0 0 0 0 0 0 0 0 0 0 0 0 0 0 0 0 0 0 0 0 0 0 0 0 0
0 0 0 0 0 0 0 0 0 0 0 0 0 0 0 0 0 0 0 0 0 0 0 0 0 0 0 0 0 0 0 0 0 0 0 0 0 0 0 0 0 0 0 0 0 0 0 0 0
0 0 0 0 0 0 0 0 0 0 0 0 0 0 0 0 0 0 0 0 0 0 0 0 0 0 0 0 0 0 0 0 0 0 0 0 0 0 0 0 0 0 0 0 0 0 0 0 0
0 0 0 0 0 0 0 0 -0 0 0 0 0 0 0 0 0 0 0 0 0 0 0 0 0 0 0 0 0 0 0 0 0 0 0 0 0 0 0 0 0 0 0 0 0 0 0 0 0
0 0 0 0 0 0 0 0 -0 0 0 0 0 0 0 0 0 0 0 0 0 0 0 0 0 0 0 0 0 0 0 0 0 0 0 0 0 0 0 0 0 0 0 0 0 0 0 0 0
0 0 0 0 0 0 0 0 0 0 0 0 0 0 0 0 0 0 0 0 0 0 0 0 0 0 0 0 0 0 0 0 0 0 0 0 0 0 0 0 0 0 0 0 0 0 0 0 0
0 0 0 0 0 0 0 0 0 0 0 -0 0 0 0 0 0 0 0 0 0 0 0 0 0 0 0 0 0 0 0 0 0 0 0 0 0 0 0 0 0 0 0 0 0 0 0 0 0
0 0 0 0 0 0 0 0 0 0 0 0 0 0 0 0 0 0 0 0 0 0 0 0 0 0 0 0 0 0 0 0 0 0 0 0 0 0 0 0 0 0 0 0 0 0 0 0 0
0 0 0 0 0 0 0 0 0 0 0 0 0 0 0 0 0 0 0 0 0 0 0 0 0 0 0 0 0 0 0 0 0 0 0 0 0 0 0 0 0 0 0 0 0 0 0 0 0
0 0 0 0 0 0 0 0 0 0 0 0 0 0 0 0 0 0 0 0 0 0 0 0 0 0 0 0 0 0 0 0 0 0 0 0 0 0 0 0 0 0 0 0 0 0 0 0 0
0 0 0 0 0 0 0 0 0 0 0 0 0 0 0 0 0 0 0 0 0 0 0 0 0 0 0 0 0 0 0 0 0 0 0 0 0 0 0 0 0 0 0 0 0 0 0 0 0
Wind_Speed_500mb
19 20 24 20 2 6 5 7 17 16 9 13 23 14 20 29 13 15 35 30 22 23 26 31 27 21 23 30 28 28 26 24 22 20 23 23 26 27 27 27 26 30 35 34 33 35 36 38 41
17 20 14 12 4 9 5 16 13 11 25 22 17 10 9 10 16 38 39 36 18 24 29 31 27 23 22 27 27 23 20 16 15 17 20 20 20 26 25 27 27 32 37 34 33 34 36 38 39
18 16 11 5 7 6 5 10 19 33 23 17 9 17 9 10 27 35 36 40 25 22 26 29 26 24 22 25 25 25 22 20 19 19 20 22 21 27 30 24 20 31 33 31 33 33 33 34 36
14 10 13 5 16 3 14 6 38 26 7 5 13 18 14 24 31 26 46 39 32 24 27 26 26 24 22 23 23 23 25 25 26 23 21 24 23 29 29 23 22 28 27 32 32 32 33 34 35
14 13 5 8 14 5 9 12 34 13 21 14 7 12 13 24 21 33 44 39 30 26 28 26 25 23 23 23 23 23 21 22 22 22 22 22 27 36 28 20 19 23 26 29 30 30 31 31 32
8 14 9 8 18 11 5 7 14 18 17 23 7 20 15 23 29 44 38 34 27 26 28 27 25 23 22 24 25 24 23 24 26 23 25 26 28 29 23 25 21 23 26 26 26 27 28 28 29
10 12 15 23 22 8 11 17 18 18 14 15 2 12 19 27 43 41 38 35 28 26 29 26 25 24 23 23 24 23 25 25 24 23 21 22 22 20 24 24 22 22 23 23 24 25 27 27 27
22 17 19 22 10 8 22 23 21 28 17 25 13 8 15 39 48 49 36 37 30 25 29 29 26 24 22 21 20 24 22 21 19 19 20 19 18 18 22 22 20 20 20 21 22 23 24 26 25
23 6 15 18 16 7 23 14 6 13 23 18 17 5 12 45 52 55 42 39 35 28 26 28 29 26 24 21 21 21 20 19 17 16 15 14 14 16 19 18 17 17 18 19 19 19 19 22 22
12 12 19 17 5 10 19 20 22 6 18 17 21 18 34 29 59 62 55 48 44 39 37 28 29 27 26 24 22 20 18 16 16 17 18 13 6 14 14 14 14 13 14 15 15 14 12 13 14
9 15 20 5 3 4 3 11 27 16 16 29 40 35 40 35 58 64 60 49 49 45 44 44 30 30 29 27 26 24 22 19 18 17 19 20 9 8 11 11 11 10 9 11 10 11 11 9 8
11 35 30 10 12 6 6 4 8 24 16 32 34 42 43 43 55 67 66 61 48 49 47 49 48 36 32 29 28 23 25 20 19 18 17 17 15 12 9 10 9 7 6 6 6 8 7 6 6
28 28 32 18 19 18 10 17 12 26 34 12 10 51 45 45 49 56 57 56 57 52 50 50 55 49 45 36 33 25 25 23 21 20 19 18 15 14 12 10 10 8 6 7 5 3 3 4 4
37 46 41 29 24 15 11 15 13 18 27 30 25 40 46 45 48 48 53 54 53 53 50 47 51 50 45 41 33 31 27 26 26 23 22 21 18 17 15 13 10 9 9 8 8 5 3 2 1
19 23 14 21 25 13 21 13 18 36 17 36 36 42 47 46 44 54 56 59 64 59 52 52 51 50 49 45 41 37 32 30 31 28 26 25 24 21 20 18 17 15 12 11 10 8 7 7 5
19 16 16 19 29 13 22 16 30 51 40 37 44 45 49 48 54 50 53 55 64 65 58 57 52 55 49 46 44 40 40 37 34 33 32 30 29 26 25 24 22 21 17 16 13 12 10 8 9
22 21 24 12 40 13 18 14 32 40 59 43 44 50 54 51 52 55 51 53 60 57 63 62 59 58 57 47 48 44 41 41 39 37 37 35 34 33 31 29 25 25 21 18 13 12 13 15 11
34 30 30 29 26 30 16 26 17 20 41 45 46 52 56 60 64 61 59 55 55 52 69 67 66 58 60 53 52 50 45 46 44 41 40 41 38 38 36 35 31 32 25 17 15 12 14 18 16
25 36 33 28 20 18 36 33 23 39 33 36 43 46 56 59 57 57 57 60 57 61 58 74 66 64 62 63 62 59 57 53 50 47 43 43 40 40 42 37 35 31 25 16 16 15 14 12 10
33 35 34 6 28 17 19 32 27 25 36 50 48 49 57 56 51 55 60 68 69 67 61 66 64 63 67 68 64 59 58 53 43 46 47 44 44 39 43 40 34 29 26 25 25 23 21 19 19
35 38 29 17 12 2 6 13 16 20 47 49 54 60 59 68 64 64 62 67 71 70 65 67 64 63 65 65 63 59 55 55 50 54 50 46 43 40 42 38 35 34 32 33 30 30 29 29 28
34 29 17 23 13 7 16 10 20 40 33 25 57 64 58 67 60 63 64 65 70 71 67 65 67 68 67 65 67 67 67 63 59 57 55 50 46 47 40 40 44 40 40 39 37 37 38 37 38
22 18 17 11 6 8 14 4 11 18 33 37 46 59 66 65 67 68 71 69 66 66 69 70 71 72 72 68 69 69 69 61 56 53 52 53 52 51 48 45 44 47 49 47 44 42 44 42 41
26 27 22 8 5 9 17 15 9 9 17 36 39 63 74 72 68 70 74 72 69 68 68 72 75 75 75 74 73 75 71 66 58 59 56 55 54 48 48 48 47 43 49 50 48 46 41 42 38
21 37 8 6 7 12 1 17 18 12 9 13 18 51 77 75 70 70 71 76 73 72 71 73 74 75 77 79 80 79 77 72 68 61 60 56 57 54 50 49 48 47 37 36 35 37 41 41 42
32 18 13 15 11 8 6 13 11 24 36 34 41 18 14 39 66 69 72 70 71 69 70 72 75 75 77 81 84 81 78 75 72 65 64 64 63 59 48 49 49 49 44 42 42 41 44 44 42
15 12 9 14 2 7 10 11 16 19 12 15 16 19 28 29 27 43 42 56 61 63 66 69 73 74 78 80 80 80 77 74 73 71 66 68 66 62 59 56 54 52 53 51 54 48 47 43 43
23 15 6 1 9 6 5 7 10 6 8 16 13 24 28 31 33 35 39 49 61 64 64 63 66 74 78 80 83 80 75 71 69 67 69 67 64 60 54 56 54 53 55 60 58 54 49 45 45
13 15 6 9 7 8 6 11 7 10 7 8 6 2 11 17 20 32 36 37 37 40 40 43 49 59 66 72 77 75 70 68 66 66 68 66 65 60 60 59 58 57 60 61 62 55 56 52 50
21 19 16 10 10 2 5 8 4 14 10 6 4 5 7 12 21 29 33 33 33 32 33 33 37 43 50 55 58 59 57 57 58 59 62 61 59 60 60 63 66 63 64 62 65 59 60 57 54
Wind_Direction_500mb
318 328 325 305 289 228 176 129 104 94 112 54 83 41 76 52 32 118 130 158 169 137 122 119 117 121 119 133 131 115 114 113 111 97 98 94 89 82 73 67 71 79 78 73 70 73 77 79 78
311 325 315 272 239 247 136 116 144 131 101 103 90 84 73 86 80 134 135 134 163 127 125 127 119 117 114 130 142 131 130 133 121 112 100 93 89 96 88 78 69 75 77 73 72 73 74 75 77
306 314 296 306 248 319 46 137 101 86 119 136 97 50 40 83 123 135 153 140 142 143 131 132 123 118 110 120 132 141 146 142 137 118 98 97 102 106 96 81 76 80 79 73 72 73 75 78 82
328 317 262 254 251 105 29 86 110 121 87 122 92 90 78 101 131 164 146 142 148 156 139 138 128 119 111 117 118 117 118 115 112 110 116 105 114 102 111 103 87 81 79 74 74 74 78 79 83
304 266 286 283 290 56 96 2 125 156 152 161 203 122 90 133 148 155 147 148 161 154 147 142 136 126 117 116 117 116 114 114 108 110 114 109 107 115 112 110 99 91 77 77 78 78 78 79 86
278 263 248 220 244 154 98 143 167 180 142 144 171 115 118 173 154 149 147 152 163 155 152 147 142 136 126 122 118 116 113 115 110 103 117 110 109 128 112 112 95 86 80 81 82 82 82 83 89
247 271 260 271 214 135 168 169 186 167 148 162 267 124 139 163 156 154 151 152 175 169 155 153 147 146 138 131 126 119 112 113 120 120 115 111 100 106 109 107 95 87 82 80 82 84 84 84 89
261 256 267 268 279 217 130 164 190 185 169 135 158 180 160 177 171 149 161 161 177 180 165 162 157 155 153 145 133 130 129 127 118 108 113 115 114 113 109 105 100 92 85 83 83 85 87 83 87
228 273 242 245 259 92 138 174 207 177 138 150 182 101 143 186 169 151 169 170 179 181 174 170 166 164 164 161 148 143 141 139 134 123 119 131 141 123 114 109 104 97 89 84 84 86 91 92 88
193 231 243 252 285 359 156 205 164 159 165 168 152 126 171 182 173 165 176 177 185 180 177 187 173 176 174 171 169 161 156 156 149 142 130 130 143 112 121 125 119 107 97 89 87 92 92 96 94
222 229 242 90 51 84 105 222 163 199 207 191 181 163 182 188 179 178 182 184 191 186 198 178 176 191 186 178 181 174 177 177 171 165 158 186 173 148 140 144 138 128 121 112 96 86 81 82 85
201 233 251 277 180 178 204 222 188 209 225 209 203 201 197 197 190 191 195 178 192 195 208 185 177 201 194 192 188 189 190 191 189 182 177 186 182 185 161 163 149 143 142 123 112 96 93 92 85
220 214 221 218 182 213 219 217 198 223 226 227 204 186 200 205 197 200 206 196 184 202 215 203 190 193 190 200 188 200 205 200 201 199 196 193 196 199 196 192 195 184 187 193 182 173 111 83 65
196 227 227 186 186 203 197 231 181 238 215 228 187 195 202 209 199 200 204 196 202 201 216 211 207 207 207 202 201 200 216 210 216 213 210 211 214 214 216 216 225 222 217 218 227 229 264 296 2
172 209 195 183 199 216 199 259 219 225 217 221 202 199 201 211 203 207 209 203 202 201 209 222 210 212 215 211 212 208 217 219 222 225 225 222 225 226 227 230 234 236 233 230 235 241 253 266 264
178 235 188 193 192 202 166 244 225 234 219 222 205 204 205 209 210 214 208 208 215 204 203 220 213 208 217 215 218 216 218 227 231 228 232 230 232 237 239 241 243 244 237 238 240 249 257 265 276
200 192 201 193 187 143 187 241 232 248 206 209 214 206 207 206 211 214 212 211 221 211 194 213 221 210 219 215 219 225 225 228 231 233 234 237 235 238 243 247 246 249 242 240 253 272 277 271 273
183 194 189 200 185 198 189 248 266 264 188 204 218 213 209 204 212 211 214 216 216 221 205 211 219 214 213 221 219 224 225 228 232 234 239 241 238 239 243 242 248 249 247 241 257 266 282 290 272
182 184 186 210 179 164 219 233 222 235 205 221 223 219 209 212 222 215 211 214 215 219 215 212 215 214 213 219 219 221 223 229 230 230 228 228 245 239 239 247 247 245 236 237 238 242 259 290 273
173 189 210 83 156 176 206 236 234 225 209 211 215 223 214 217 210 219 216 211 213 217 214 211 215 214 217 222 226 225 227 236 235 237 237 232 240 241 239 247 239 232 237 241 247 252 257 269 272
212 195 194 151 142 305 20 270 246 238 225 213 209 218 218 218 209 212 214 214 210 216 216 213 212 216 219 222 224 227 229 236 231 234 238 238 243 243 240 239 238 240 241 247 246 253 259 264 268
202 189 172 132 124 204 155 275 218 226 220 214 209 214 220 217 212 209 214 217 219 219 217 217 215 217 223 222 226 230 232 234 237 237 242 243 242 246 246 241 241 240 242 249 255 257 261 259 260
173 120 120 131 157 27 192 248 245 216 209 214 222 209 216 219 213 207 212 222 225 220 218 220 217 217 222 226 230 233 235 237 241 240 242 245 245 245 246 241 244 243 243 245 252 256 260 261 262
146 100 78 77 143 258 206 184 245 203 203 213 219 217 222 221 217 216 215 225 224 224 221 221 221 224 225 228 231 234 239 240 234 240 242 242 245 244 242 245 243 250 247 245 248 255 254 258 263
162 124 111 166 207 226 20 200 232 249 225 215 211 214 223 222 221 218 218 218 224 222 224 226 227 229 228 230 234 237 240 243 245 246 244 242 244 244 243 243 242 244 243 235 241 256 261 265 267
200 139 140 171 187 187 348 230 239 226 252 269 255 232 225 195 219 223 221 221 225 227 225 228 230 231 231 234 236 238 240 240 246 245 243 245 248 251 251 248 247 244 240 238 239 255 261 264 261
220 201 100 106 351 82 203 257 302 263 231 223 217 210 232 229 204 199 193 210 223 230 233 231 232 235 235 237 237 238 239 239 241 244 241 242 249 248 249 249 245 242 241 241 243 250 261 258 258
221 149 106 348 134 189 238 260 229 56 202 196 213 217 233 243 235 229 224 222 224 231 235 236 234 234 235 231 235 237 238 239 240 238 238 236 239 239 236 242 247 241 247 241 240 243 253 252 253
188 191 174 130 157 158 159 255 184 119 113 132 104 158 227 223 225 218 226 222 216 218 228 235 237 235 232 232 234 238 240 242 241 240 241 240 240 238 237 240 242 245 242 247 240 241 249 249 250
211 193 155 151 218 89 138 273 132 130 124 139 141 128 161 182 193 203 220 229 222 218 223 231 231 229 227 229 232 236 238 239 243 245 246 245 241 243 243 246 244 244 242 242 239 236 246 245 246
Wind_Speed_850mb
19 20 24 20 2 6 5 7 17 16 9 13 23 14 20 29 13 15 35 30 22 23 26 31 27 21 23 30 28 28 26 24 22 20 23 23 26 27 27 27 26 30 35 34 33 35 36 38 41
17 20 14 12 4 9 5 16 13 11 25 22 17 10 9 10 16 38 39 36 18 24 29 31 27 23 22 27 27 23 20 16 15 17 20 20 20 26 25 27 27 32 37 34 33 34 36 38 39
18 16 11 5 7 6 5 10 19 33 23 17 9 17 9 10 27 35 36 40 25 22 26 29 26 24 22 25 25 25 22 20 19 19 20 22 21 27 30 24 20 31 33 31 33 33 33 34 36
14 10 13 5 16 3 14 6 38 26 7 5 13 18 14 24 31 26 46 39 32 24 27 26 26 24 22 23 23 23 25 25 26 23 21 24 23 29 29 23 22 28 27 32 32 32 33 34 35
14 13 5 8 14 5 9 12 34 13 21 14 7 12 13 24 21 33 44 39 30 26 28 26 25 23 23 23 23 23 21 22 22 22 22 22 27 36 28 20 19 23 26 29 30 30 31 31 32
8 14 9 8 18 11 5 7 14 18 17 23 7 20 15 23 29 44 38 34 27 26 28 27 25 23 22 24 25 24 23 24 26 23 25 26 28 29 23 25 21 23 26 26 26 27 28 28 29
10 12 15 23 22 8 11 17 18 18 14 15 2 12 19 27 43 41 38 35 28 26 29 26 25 24 23 23 24 23 25 25 24 23 21 22 22 20 24 24 22 22 23 23 24 25 27 27 27
22 17 19 22 10 8 22 23 21 28 17 25 13 8 15 39 48 49 36 37 30 25 29 29 26 24 22 21 20 24 22 21 19 19 20 19 18 18 22 22 20 20 20 21 22 23 24 26 25
23 6 15 18 16 7 23 14 6 13 23 18 17 5 12 45 52 55 42 39 35 28 26 28 29 26 24 21 21 21 20 19 17 16 15 14 14 16 19 18 17 17 18 19 19 19 19 22 22
12 12 19 17 5 10 19 20 22 6 18 17 21 18 34 29 59 62 55 48 44 39 37 28 29 27 26 24 22 20 18 16 16 17 18 13 6 14 14 14 14 13 14 15 15 14 12 13 14
9 15 20 5 3 4 3 11 27 16 16 29 40 35 40 35 58 64 60 49 49 45 44 44 30 30 29 27 26 24 22 19 18 17 19 20 9 8 11 11 11 10 9 11 10 11 11 9 8
11 35 30 10 12 6 6 4 8 24 16 32 34 42 43 43 55 67 66 61 48 49 47 49 48 36 32 29 28 23 25 20 19 18 17 17 15 12 9 10 9 7 6 6 6 8 7 6 6
28 28 32 18 19 18 10 17 12 26 34 12 10 51 45 45 49 56 57 56 57 52 50 50 55 49 45 36 33 25 25 23 21 20 19 18 15 14 12 10 10 8 6 7 5 3 3 4 4
37 46 41 29 24 15 11 15 13 18 27 30 25 40 46 45 48 48 53 54 53 53 50 47 51 50 45 41 33 31 27 26 26 23 22 21 18 17 15 13 10 9 9 8 8 5 3 2 1
19 23 14 21 25 13 21 13 18 36 17 36 36 42 47 46 44 54 56 59 64 59 52 52 51 50 49 45 41 37 32 30 31 28 26 25 24 21 20 18 17 15 12 11 10 8 7 7 5
19 16 16 19 29 13 22 16 30 51 40 37 44 45 49 48 54 50 53 55 64 65 58 57 52 55 49 46 44 40 40 37 34 33 32 30 29 26 25 24 22 21 17 16 13 12 10 8 9
22 21 24 12 40 13 18 14 32 40 59 43 44 50 54 51 52 55 51 53 60 57 63 62 59 58 57 47 48 44 41 41 39 37 37 35 34 33 31 29 25 25 21 18 13 12 13 15 11
34 30 30 29 26 30 16 26 17 20 41 45 46 52 56 60 64 61 59 55 55 52 69 67 66 58 60 53 52 50 45 46 44 41 40 41 38 38 36 35 31 32 25 17 15 12 14 18 16
25 36 33 28 20 18 36 33 23 39 33 36 43 46 56 59 57 57 57 60 57 61 58 74 66 64 62 63 62 59 57 53 50 47 43 43 40 40 42 37 35 31 25 16 16 15 14 12 10
33 35 34 6 28 17 19 32 27 25 36 50 48 49 57 56 51 55 60 68 69 67 61 66 64 63 67 68 64 59 58 53 43 46 47 44 44 39 43 40 34 29 26 25 25 23 21 19 19
35 38 29 17 12 2 6 13 16 20 47 49 54 60 59 68 64 64 62 67 71 70 65 67 64 63 65 65 63 59 55 55 50 54 50 46 43 40 42 38 35 34 32 33 30 30 29 29 28
34 29 17 23 13 7 16 10 20 40 33 25 57 64 58 67 60 63 64 65 70 71 67 65 67 68 67 65 67 67 67 63 59 57 55 50 46 47 40 40 44 40 40 39 37 37 38 37 38
22 18 17 11 6 8 14 4 11 18 33 37 46 59 66 65 67 68 71 69 66 66 69 70 71 72 72 68 69 69 69 61 56 53 52 53 52 51 48 45 44 47 49 47 44 42 44 42 41
26 27 22 8 5 9 17 15 9 9 17 36 39 63 74 72 68 70 74 72 69 68 68 72 75 75 75 74 73 75 71 66 58 59 56 55 54 48 48 48 47 43 49 50 48 46 41 42 38
21 37 8 6 7 12 1 17 18 12 9 13 18 51 77 75 70 70 71 76 73 72 71 73 74 75 77 79 80 79 77 72 68 61 60 56 57 54 50 49 48 47 37 36 35 37 41 41 42
32 18 13 15 11 8 6 13 11 24 36 34 41 18 14 39 66 69 72 70 71 69 70 72 75 75 77 81 84 81 78 75 72 65 64 64 63 59 48 49 49 49 44 42 42 41 44 44 42
15 12 9 14 2 7 10 11 16 19 12 15 16 19 28 29 27 43 42 56 61 63 66 69 73 74 78 80 80 80 77 74 73 71 66 68 66 62 59 56 54 52 53 51 54 48 47 43 43
23 15 6 1 9 6 5 7 10 6 8 16 13 24 28 31 33 35 39 49 61 64 64 63 66 74 78 80 83 80 75 71 69 67 69 67 64 60 54 56 54 53 55 60 58 54 49 45 45
13 15 6 9 7 8 6 11 7 10 7 8 6 2 11 17 20 32 36 37 37 40 40 43 49 59 66 72 77 75 70 68 66 66 68 66 65 60 60 59 58 57 60 61 62 55 56 52 50
21 19 16 10 10 2 5 8 4 14 10 6 4 5 7 12 21 29 33 33 33 32 33 33 37 43 50 55 58 59 57 57 58 59 62 61 59 60 60 63 66 63 64 62 65 59 60 57 54
Wind_Direction_850mb
318 328 325 305 289 228 176 129 104 94 112 54 83 41 76 52 32 118 130 158 169 137 122 119 117 121 119 133 131 115 114 113 111 97 98 94 89 82 73 67 71 79 78 73 70 73 77 79 78
311 325 315 272 239 247 136 116 144 131 101 103 90 84 73 86 80 134 135 134 163 127 125 127 119 117 114 130 142 131 130 133 121 112 100 93 89 96 88 78 69 75 77 73 72 73 74 75 77
306 314 296 306 248 319 46 137 101 86 119 136 97 50 40 83 123 135 153 140 142 143 131 132 123 118 110 120 132 141 146 142 137 118 98 97 102 106 96 81 76 80 79 73 72 73 75 78 82
328 317 262 254 251 105 29 86 110 121 87 122 92 90 78 101 131 164 146 142 148 156 139 138 128 119 111 117 118 117 118 115 112 110 116 105 114 102 111 103 87 81 79 74 74 74 78 79 83
304 266 286 283 290 56 96 2 125 156 152 161 203 122 90 133 148 155 147 148 161 154 147 142 136 126 117 116 117 116 114 114 108 110 114 109 107 115 112 110 99 91 77 77 78 78 78 79 86
278 263 248 220 244 154 98 143 167 180 142 144 171 115 118 173 154 149 147 152 163 155 152 147 142 136 126 122 118 116 113 115 110 103 117 110 109 128 112 112 95 86 80 81 82 82 82 83 89
247 271 260 271 214 135 168 169 186 167 148 162 267 124 139 163 156 154 151 152 175 169 155 153 147 146 138 131 126 119 112 113 120 120 115 111 100 106 109 107 95 87 82 80 82 84 84 84 89
261 256 267 268 279 217 130 164 190 185 169 135 158 180 160 177 171 149 161 161 177 180 165 162 157 155 153 145 133 130 129 127 118 108 113 115 114 113 109 105 100 92 85 83 83 85 87 83 87
228 273 242 245 259 92 138 174 207 177 138 150 182 101 143 186 169 151 169 170 179 181 174 170 166 164 164 161 148 143 141 139 134 123 119 131 141 123 114 109 104 97 89 84 84 86 91 92 88
193 231 243 252 285 359 156 205 164 159 165 168 152 126 171 182 173 165 176 177 185 180 177 187 173 176 174 171 169 161 156 156 149 142 130 130 143 112 121 125 119 107 97 89 87 92 92 96 94
222 229 242 90 51 84 105 222 163 199 207 191 181 163 182 188 179 178 182 184 191 186 198 178 176 191 186 178 181 174 177 177 171 165 158 186 173 148 140 144 138 128 121 112 96 86 81 82 85
201 233 251 277 180 178 204 222 188 209 225 209 203 201 197 197 190 191 195 178 192 195 208 185 177 201 194 192 188 189 190 191 189 182 177 186 182 185 161 163 149 143 142 123 112 96 93 92 85
220 214 221 218 182 213 219 217 198 223 226 227 204 186 200 205 197 200 206 196 184 202 215 203 190 193 190 200 188 200 205 200 201 199 196 193 196 199 196 192 195 184 187 193 182 173 111 83 65
196 227 227 186 186 203 197 231 181 238 215 228 187 195 202 209 199 200 204 196 202 201 216 211 207 207 207 202 201 200 216 210 216 213 210 211 214 214 216 216 225 222 217 218 227 229 264 296 2
172 209 195 183 199 216 199 259 219 225 217 221 202 199 201 211 203 207 209 203 202 201 209 222 210 212 215 211 212 208 217 219 222 225 225 222 225 226 227 230 234 236 233 230 235 241 253 266 264
178 235 188 193 192 202 166 244 225 234 219 222 205 204 205 209 210 214 208 208 215 204 203 220 213 208 217 215 218 216 218 227 231 228 232 230 232 237 239 241 243 244 237 238 240 249 257 265 276
200 192 201 193 187 143 187 241 232 248 206 209 214 206 207 206 211 214 212 211 221 211 194 213 221 210 219 215 219 225 225 228 231 233 234 237 235 238 243 247 246 249 242 240 253 272 277 271 273
183 194 189 200 185 198 189 248 266 264 188 204 218 213 209 204 212 211 214 216 216 221 205 211 219 214 213 221 219 224 225 228 232 234 239 241 238 239 243 242 248 249 247 241 257 266 282 290 272
182 184 186 210 179 164 219 233 222 235 205 221 223 219 209 212 222 215 211 214 215 219 215 212 215 214 213 219 219 221 223 229 230 230 228 228 245 239 239 247 247 245 236 237 238 242 259 290 273
173 189 210 83 156 176 206 236 234 225 209 211 215 223 214 217 210 219 216 211 213 217 214 211 215 214 217 222 226 225 227 236 235 237 237 232 240 241 239 247 239 232 237 241 247 252 257 269 272
212 195 194 151 142 305 20 270 246 238 225 213 209 218 218 218 209 212 214 214 210 216 216 213 212 216 219 222 224 227 229 236 231 234 238 238 243 243 240 239 238 240 241 247 246 253 259 264 268
202 189 172 132 124 204 155 275 218 226 220 214 209 214 220 217 212 209 214 217 219 219 217 217 215 217 223 222 226 230 232 234 237 237 242 243 242 246 246 241 241 240 242 249 255 257 261 259 260
173 120 120 131 157 27 192 248 245 216 209 214 222 209 216 219 213 207 212 222 225 220 218 220 217 217 222 226 230 233 235 237 241 240 242 245 245 245 246 241 244 243 243 245 252 256 260 261 262
146 100 78 77 143 258 206 184 245 203 203 213 219 217 222 221 217 216 215 225 224 224 221 221 221 224 225 228 231 234 239 240 234 240 242 242 245 244 242 245 243 250 247 245 248 255 254 258 263
162 124 111 166 207 226 20 200 232 249 225 215 211 214 223 222 221 218 218 218 224 222 224 226 227 229 228 230 234 237 240 243 245 246 244 242 244 244 243 243 242 244 243 235 241 256 261 265 267
200 139 140 171 187 187 348 230 239 226 252 269 255 232 225 195 219 223 221 221 225 227 225 228 230 231 231 234 236 238 240 240 246 245 243 245 248 251 251 248 247 244 240 238 239 255 261 264 261
220 201 100 106 351 82 203 257 302 263 231 223 217 210 232 229 204 199 193 210 223 230 233 231 232 235 235 237 237 238 239 239 241 244 241 242 249 248 249 249 245 242 241 241 243 250 261 258 258
221 149 106 348 134 189 238 260 229 56 202 196 213 217 233 243 235 229 224 222 224 231 235 236 234 234 235 231 235 237 238 239 240 238 238 236 239 239 236 242 247 241 247 241 240 243 253 252 253
188 191 174 130 157 158 159 255 184 119 113 132 104 158 227 223 225 218 226 222 216 218 228 235 237 235 232 232 234 238 240 242 241 240 241 240 240 238 237 240 242 245 242 247 240 241 249 249 250
211 193 155 151 218 89 138 273 132 130 124 139 141 128 161 182 193 203 220 229 222 218 223 231 231 229 227 229 232 236 238 239 243 245 246 245 241 243 243 246 244 244 242 242 239 236 246 245 246